Probability
0 0 0 0 0 0 0 0 0 0 0 0 0 0 0 0 0 0 0 0 0 0 0 0 0 0 0 0 0 0 0 0 0 0 0 0 0 0 0 0 0 0 0
0 0 0 0 0 0 0 0 0 0 0 0 0 0 0 0 0 0 0 0 0 0 0 0 0 0 0 0 0 0 0 0 0 0 0 0 0 0 0 0 0 0 0
0 0 0 0 0 0 0 0 0 0 0 0 0 0 0 0 0 0 0 0 0 0 0 0 0 0 0 0 0 0 0 0 0 0 0 0 0 0 0 0 0 0 0
0 0 0 0 0 0 0 0 0 0 0 0 0 0 0 0 0 0 0 0 0 0 0 0 0 0 0 0 0 0 0 0 0 0 0 0 0 0 0 0 0 0 0
0 0 0 0 0 0 0 0 0 0 0 0 0 0 0 0 0 0 0 0 0 0 0 0 0 0 0 0 0 0 0 0 0 0 0 0 0 0 0 0 0 0 0
0 0 0 0 0 0 0 0 0 0 0 0 0 0 0 0 0 0 0 0 0 0 0 0 0 0 0 0 0 0 0 0 0 0 0 0 0 0 0 0 0 0 0
0 0 0 0 0 0 0 0 0 0 0 0 0 0 0 0 0 0 0 0 0 0 0 0 0 0 0 0 0 0 0 0 0 0 0 0 0 0 0 0 0 0 0
0 0 0 0 0 0 0 0 0 0 0 0 0 0 0 0 0 0 0 0 0 0 0 0 0 0 0 0 0 0 0 0 0 0 0 0 0 0 0 0 0 0 0
0 0 0 0 0 0 0 0 0 0 0 0 0 0 0 0 0 0 0 0 0 0 0 0 0 0 0 0 0 0 0 0 0 0 0 0 0 0 0 0 0 0 0
0 0 0 0 0 0 0 0 0 0 0 0 0 0 0 0 0 0 0 0 0 0 0 0 0 0 0 0 0 0 0 0 0 0 0 0 0 0 0 0 0 0 0
0 0 0 0 0 0 0 0 0 0 0 0 0 0 0 0 0 0 0 0 0 0 0 0 0 0 0 0 0 0 0 0 0 0 0 0 0 0 0 0 0 0 0
0 0 0 0 0 0 0 0 0 0 0 0 0 0 0 0 0 0 0 0 0 0 0 0 0 0 0 0 0 0 0 0 0 0 0 0 0 0 0 0 0 0 0
0 0 0 0 0 0 0 0 0 0 0 0 0 0 0 0 0 0 0 0 0 0 0 0 0 0 0 0 0 0 0 0 0 0 0 0 0 0 0 0 0 0 0
0 0 0 0 0 0 0 0 0 0 0 0 0 0 0 0 0 0 0 0 0 0 0 0 0 0 0 0 0 0 0 0 0 0 0 0 0 0 0 0 0 0 0
0 0 0 0 0 0 0 0 0 0 0 0 0 0 0 0 0 0 0 0 0 0 0 0 0 0 0 0 0 0 0 0 0 0 0 0 0 0 0 0 0 0 0
0 0 0 0 0 0 0 0 0 0 0 0 0 0 0 0 0 0 0 0 0 0 0 0 0 0 0 0 0 0 0 0 0 0 0 0 0 0 0 0 0 0 0
0 0 0 0 0 0 0 0 0 0 0 0 0 0 0 0 0 0 0 0 0 0 0 0 0 0 0 0 0 0 0 0 0 0 0 0 0 0 0 0 0 0 0
0 0 0 0 0 0 0 0 0 0 0 0 0 0 0 0 0 0 0 0 0 0 0 0 0 0 0 0 0 0 0 0 0 0 0 0 0 0 0 0 0 0 0
0 0 0 0 0 0 0 0 0 0 0 0 0 0 0 0 0 0 0 0 0 0 0 0 0 0 0 0 0 0 0 0 0 0 0 0 0 0 0 0 0 0 0
0 0 0 0 0 0 0 0 0 0 0 0 0 0 0 0 0 0 0 0 0 0 0 0 0 0 0 0 0 0 0 0 0 0 0 0 0 0 0 0 0 0 0
0 0 0 0 0 0 0 0 0 0 0 0 0 0 0 0 0 0 0 0 0 0 0 0 0 0 0 0 0 0 0 0 0 0 0 0 0 0 0 0 0 0 0
0 0 0 0 0 0 0 0 0 0 0 0 0 0 0 0 0 0 0 0 0 0 0 0 0 0 0 0 0 0 0 0 0 0 0 0 0 0 0 0 0 0 0
0 0 0 0 0 0 0 0 0 0 0 0 0 0 0 0 0 0 0 0 0 0 0 0 0 0 0 0 0 0 0 0 0 0 0 0 0 0 0 0 0 0 0
0 0 0 0 0 0 0 0 0 0 0 0 0 0 0 0 0 0 0 0 0 0 0 0 0 0 0 0 0 0 0 0 0 0 0 0 0 0 0 0 0 0 0
0 0 0 0 0 0 0 0 0 0 0 0 0 0 0 0 0 0 0 0 0 0 0 0 0 0 0 0 0 0 0 0 0 0 0 0 0 0 0 0 0 0 0
0 0 0 0 0 0 0 0 0 0 0 0 0 0 0 0 0 0 0 0 0 0 0 0 0 0 0 0 0 0 0 0 0 0 0 0 0 0 0 0 0 0 0
Wind_Speed
12 9 10 11 11 12 15 17 17 16 14 12 12 11 11 9 8 7 9 10 9 9 8 6 6 5 5 5 5 3 2 1 1 2 2 3 3 2 1 1 1 2 1
9 8 8 8 11 14 16 17 18 18 18 14 13 9 8 6 6 6 8 10 10 10 8 8 6 6 5 5 4 4 3 1 1 2 2 2 3 3 2 2 1 1 1
13 10 9 9 10 13 16 16 18 17 17 13 8 6 5 4 5 7 8 9 10 10 9 9 7 7 6 6 5 5 5 3 1 2 4 3 2 2 3 2 1 1 1
11 9 9 9 10 13 13 15 16 16 15 14 14 15 11 9 9 8 7 8 9 10 10 9 9 8 6 6 6 5 4 5 3 1 1 2 3 2 2 3 2 2 1
10 11 10 10 9 9 10 12 13 14 14 15 16 16 10 7 5 6 8 8 7 9 10 10 9 8 6 7 6 5 5 4 4 3 2 2 1 2 2 3 3 3 3
9 8 6 5 5 5 7 9 12 12 13 15 15 16 14 11 10 10 10 8 6 6 9 9 8 8 7 7 7 6 6 4 4 3 3 3 3 3 3 3 3 3 3
8 7 7 7 6 7 8 9 12 12 12 14 14 15 14 14 15 12 11 10 7 5 9 8 8 7 7 7 7 6 6 6 5 4 3 3 3 3 3 3 2 2 3
8 8 9 8 7 8 8 10 12 11 12 13 13 12 12 10 9 11 10 10 8 8 9 9 8 8 8 8 7 5 5 5 5 5 4 3 3 3 3 4 3 1 3
8 8 8 7 7 8 9 10 11 10 11 12 11 11 12 11 10 10 9 8 7 7 10 9 9 9 9 8 8 5 5 5 5 5 5 3 3 3 3 3 4 4 3
7 7 7 8 7 7 7 7 9 10 9 10 10 9 10 10 10 10 11 10 9 9 11 10 9 9 8 8 7 6 5 6 5 4 5 4 3 3 3 3 3 4 4
9 8 7 7 6 6 6 7 7 7 8 9 9 9 9 9 10 10 11 10 10 10 12 11 10 10 9 8 7 6 7 7 5 4 5 5 4 3 3 3 3 4 4
8 8 7 7 6 7 7 7 7 8 8 8 8 9 9 10 10 10 10 10 11 11 11 10 10 10 9 9 9 8 7 7 7 6 5 5 4 4 4 3 4 4 5
8 6 6 7 8 8 8 8 8 8 7 8 8 9 9 10 11 10 10 10 11 10 10 10 10 10 9 8 8 8 7 7 7 6 6 6 5 5 4 4 5 4 4
9 8 7 8 8 8 8 8 8 8 8 8 9 9 10 10 10 10 10 10 11 11 10 10 9 9 8 8 7 7 6 6 5 5 6 6 6 6 6 5 5 5 5
8 9 9 8 8 8 8 8 8 8 8 9 9 9 8 8 9 9 9 9 9 10 9 9 8 7 7 7 8 7 6 6 5 5 5 6 8 10 7 5 5 5 4
11 11 10 9 9 10 10 9 9 9 9 9 9 8 8 9 9 9 9 9 9 8 8 8 8 8 6 11 13 9 6 6 6 6 5 5 7 10 12 13 12 9 6
11 11 11 11 11 11 11 11 10 8 9 9 8 8 9 9 9 9 9 9 9 8 8 7 7 7 7 11 12 11 6 6 6 6 5 5 5 8 5 9 13 12 15
10 10 10 9 8 8 8 8 8 9 9 8 8 9 9 9 9 9 9 8 7 7 7 7 7 6 6 10 10 9 5 4 5 6 6 6 6 6 6 6 6 7 7
10 9 9 8 7 8 9 9 9 9 9 9 9 9 10 10 9 9 9 6 6 6 5 6 6 6 5 8 8 7 3 3 5 5 5 6 6 11 13 7 6 7 7
6 6 6 6 7 7 9 10 9 9 9 9 9 9 9 10 10 9 7 5 6 5 6 5 5 5 4 6 7 6 3 4 4 4 5 9 10 12 13 7 5 7 7
6 7 8 7 7 8 10 10 9 9 8 7 8 8 8 8 8 7 5 6 6 6 5 4 3 3 4 5 7 7 3 4 4 4 4 5 11 14 14 11 6 10 11
7 8 8 6 6 8 10 10 8 7 8 8 8 8 7 7 7 7 6 6 6 6 4 3 2 1 2 3 5 7 6 5 3 4 4 5 11 13 13 10 12 16 14
8 7 9 8 6 6 9 10 7 8 9 9 8 7 7 6 7 8 7 5 5 4 3 3 2 2 2 2 5 7 8 8 4 4 8 9 11 11 8 11 15 12 5
8 9 10 10 7 6 7 8 9 9 10 10 8 7 7 6 6 5 5 5 5 4 3 3 3 2 1 2 2 3 3 5 5 4 6 9 10 7 8 9 7 4 5
7 8 10 10 8 8 8 8 9 10 11 9 8 7 6 6 6 4 3 4 4 5 5 4 3 3 2 4 5 3 2 2 3 3 1 1 2 3 3 4 4 4 4
9 9 9 10 9 9 9 7 8 10 11 9 7 6 5 5 5 5 4 5 4 4 3 3 2 2 2 4 5 6 7 8 8 4 2 3 3 4 4 4 4 4 4
Wind_Direction
238 231 222 210 199 195 190 188 186 182 176 178 180 182 186 184 184 185 183 182 181 180 176 173 168 166 167 171 161 142 133 108 90 68 7 349 4 38 29 38 68 63 70
246 239 226 204 193 191 190 188 187 182 182 186 186 184 173 175 178 177 183 184 182 180 179 173 172 169 160 160 160 147 137 125 113 123 91 4 346 353 8 20 64 49 41
231 230 221 209 194 193 191 189 188 185 185 178 162 142 130 131 165 185 188 188 184 180 176 175 170 169 166 170 172 162 153 156 137 126 141 149 222 303 330 351 10 0 14
225 220 213 208 200 198 192 188 185 183 182 172 172 172 177 181 185 179 180 180 182 179 176 173 171 170 168 168 172 167 158 147 156 142 119 147 155 160 303 319 327 336 333
218 215 211 206 201 191 185 185 180 181 179 178 179 181 184 179 158 158 170 177 180 179 176 173 171 170 170 169 164 159 159 153 158 162 150 129 102 131 163 270 306 319 295
212 210 207 192 187 178 177 177 177 181 179 180 180 184 180 168 162 169 176 178 175 177 177 173 172 170 168 168 167 164 162 160 156 158 157 158 161 177 174 216 261 284 286
198 195 190 187 183 177 177 176 178 181 180 181 183 185 181 176 177 176 178 176 174 179 183 173 173 171 169 166 160 159 162 162 161 167 174 174 179 165 164 178 228 268 292
201 197 195 191 188 184 178 176 181 181 180 182 184 182 178 179 182 180 177 181 184 181 176 174 173 169 165 163 161 158 166 163 167 174 173 175 188 176 173 173 173 250 294
202 198 193 189 188 185 184 181 180 179 181 182 179 178 179 180 180 177 175 178 175 170 171 171 170 168 167 166 162 165 170 166 174 178 181 184 195 189 188 179 170 177 239
198 194 190 190 190 187 181 177 177 179 178 179 180 181 182 182 177 175 179 178 173 170 170 172 170 169 169 167 164 165 170 170 179 180 184 197 201 198 193 192 192 186 196
196 194 193 190 184 175 173 176 179 176 177 179 178 177 179 177 175 179 181 177 173 172 174 173 171 172 173 170 169 175 174 179 188 189 195 210 202 203 206 199 199 205 196
191 190 186 178 178 181 182 183 181 180 181 178 175 176 173 173 177 180 177 173 174 175 174 171 171 175 176 175 176 180 183 186 193 199 200 216 209 215 216 211 218 221 214
187 185 182 185 188 188 188 187 185 183 178 174 174 174 174 176 179 177 173 172 172 171 170 171 174 177 177 178 181 182 186 193 198 198 204 214 210 227 228 225 230 234 237
186 186 193 197 194 191 189 188 189 182 176 174 176 179 180 179 177 173 171 172 171 171 173 175 176 175 174 177 178 179 186 195 204 206 209 213 212 225 230 233 235 237 244
196 197 198 199 195 192 191 189 187 182 176 175 180 183 176 171 168 169 169 168 168 171 169 168 169 169 172 180 178 181 187 194 207 218 221 223 228 234 237 238 236 231 240
203 203 200 196 196 196 192 187 185 180 174 178 181 172 166 165 166 166 163 162 164 163 163 169 171 175 185 191 192 186 188 196 207 223 233 238 243 252 260 266 268 260 252
205 201 200 200 200 196 189 187 181 169 170 175 171 166 164 164 164 160 159 163 165 160 165 171 172 182 191 193 198 198 188 200 212 220 230 243 247 259 257 271 279 278 276
203 202 200 198 196 184 177 170 161 163 168 170 168 165 162 161 157 158 163 164 159 164 168 172 176 179 194 197 200 202 197 209 221 224 227 236 250 253 260 253 259 260 266
197 196 192 184 174 170 165 155 158 162 166 170 169 166 161 158 159 164 164 157 156 161 166 169 169 175 192 199 204 203 191 217 236 239 236 237 245 265 276 273 267 272 271
174 169 158 148 155 161 152 152 160 164 173 172 165 160 158 159 163 163 155 148 152 157 155 159 167 175 188 207 216 214 190 221 242 248 248 253 259 269 278 270 263 273 274
155 147 139 144 157 151 146 152 157 171 166 148 142 145 150 153 152 145 142 141 139 138 146 155 165 178 195 216 226 228 205 218 235 245 250 254 272 279 283 284 268 274 286
142 138 133 134 137 144 144 147 158 152 134 132 133 136 138 138 136 133 132 135 137 140 147 151 168 197 211 220 237 245 252 255 232 242 245 255 277 284 290 291 290 295 301
143 136 132 126 124 138 143 145 146 133 128 125 128 128 126 125 131 136 136 133 137 143 153 160 189 226 226 241 254 262 268 272 263 251 270 281 288 294 294 295 300 305 300
138 133 129 128 128 129 126 132 132 130 126 127 126 127 125 121 119 124 134 139 148 150 159 176 199 223 244 253 255 254 266 276 279 280 287 296 301 301 300 301 302 292 275
133 133 135 134 133 127 120 123 128 126 123 123 123 121 120 124 120 115 127 144 163 168 169 184 185 189 233 256 266 267 254 253 258 287 277 282 286 281 280 283 280 276 282
133 130 129 130 128 125 121 123 126 128 127 124 123 122 120 118 118 115 88 74 99 119 125 135 153 208 254 293 298 298 298 299 301 304 281 275 271 273 277 282 283 279 278